[[{"header":{"parameterUnit":"m.s-1","parameterCategory":2,"la1":30.2991,"la2":30.254,"lo1":-89.0895,"lo2":-89.0444,"dy":0.0017,"dx":0.0017,"nx":28,"ny":28,"refTime":"2024-09-24T21:00:00:Z","depth":"0","parameterNumber":2,"parameterNumberName":"U-component_of_CURRENTS"},"data":[0,0,0,0,0,0,0,0,0,0,0,0,0,0,0,0,0,0,0,0,0,0,0,0,0,0,0,0,0,0,0,0,0,0,0,0,0,0,0,0,0,0,0,0,0,0,0,0,0,0,0,0,0,0,0,0,0,0,-0.3262,-0.3263,0,-0.3343,-0.3344,-0.3345,-0.3316,-0.3315,-0.3313,-0.3312,-0.3251,-0.325,-0.325,0,0,0,0,0,0,0,0,0,0,0,0,0,-0.3146,-0.3147,-0.3262,-0.3263,-0.3264,-0.3343,-0.3344,-0.3345,-0.3317,-0.3315,-0.3313,-0.3311,-0.3251,-0.325,-0.325,0,0,0,0,0,0,0,0,0,0,0,0,0,-0.3206,-0.3148,-0.3262,-0.3261,-0.3262,-0.3343,-0.3344,-0.3345,-0.3317,-0.3315,-0.3312,-0.331,-0.3251,-0.325,-0.325,-0.3298,0,0,-0.325,-0.325,0,0,0,0,0,0,0,0,-0.3203,-0.321,-0.326,-0.3262,-0.3263,-0.3319,-0.3281,-0.3323,-0.3318,-0.3294,-0.3312,-0.3309,-0.3263,-0.3262,-0.3282,-0.3295,-0.3292,-0.325,-0.325,-0.325,-0.3249,0,0,0,0,0,0,0,-0.3199,-0.3207,-0.3292,-0.3262,-0.3263,-0.3279,-0.3284,-0.3289,-0.3287,-0.3296,-0.3295,-0.3308,-0.3262,-0.3282,-0.328,-0.3291,-0.325,-0.325,-0.3249,-0.3249,-0.3324,-0.3326,0,0,0,0,0,0,-0.3192,-0.3203,-0.329,-0.3295,-0.3228,-0.3282,-0.3288,-0.3302,-0.329,-0.3288,-0.331,-0.3306,-0.3284,-0.328,-0.3277,-0.327,-0.325,-0.3249,-0.3249,-0.3322,-0.3324,-0.3326,0,0,0,0,0,0,-0.319,-0.3199,-0.3286,-0.3252,-0.3264,-0.3287,-0.3302,-0.3305,-0.3316,-0.3302,-0.3296,-0.3317,-0.3282,-0.3278,-0.3276,-0.3269,-0.3249,-0.3249,-0.3319,-0.3322,-0.3325,-0.3295,0,0,0,0,0,0,-0.3186,-0.3198,-0.3208,-0.3252,-0.3266,-0.3322,-0.3305,-0.3308,-0.3329,-0.3325,-0.3308,-0.33,-0.3279,-0.3277,-0.3276,-0.3268,-0.3249,-0.3316,-0.3321,-0.3324,-0.3293,-0.3296,-0.3299,0,0,0,0,0,-0.3182,-0.3199,-0.3208,-0.3219,-0.3279,-0.3323,-0.3332,-0.3338,-0.3332,-0.3339,-0.3329,-0.33,-0.3301,-0.3278,-0.3277,-0.3269,-0.3315,-0.3319,-0.3324,-0.3292,-0.3296,-0.3299,0,0,0,0,0,0,-0.3153,-0.32,-0.321,-0.3241,-0.3276,-0.3319,-0.3332,-0.3346,-0.3352,-0.3343,-0.3321,-0.3314,-0.3308,-0.3315,-0.329,-0.3311,-0.3307,-0.3311,-0.3283,-0.3287,-0.329,-0.3266,-0.3249,0,0,0,0,0,-0.3156,-0.3171,-0.3226,-0.3245,-0.3268,-0.3305,-0.3326,-0.3337,-0.3352,-0.3353,-0.3341,-0.3339,-0.3335,-0.3328,-0.3329,-0.3343,-0.3317,-0.3346,-0.3349,-0.3351,-0.3338,-0.3303,-0.3299,-0.3342,-0.3342,-0.3342,0,0,-0.3159,-0.3175,-0.3192,-0.3239,-0.3267,-0.3296,-0.3309,-0.3345,-0.3352,-0.3345,-0.3341,-0.3343,-0.3344,-0.3345,-0.3346,-0.3342,-0.3329,-0.3357,-0.3358,-0.3343,-0.3307,-0.3301,-0.3297,-0.3345,-0.3344,-0.3344,0,0,-0.3147,-0.3181,-0.3189,-0.3226,-0.327,-0.3292,-0.3303,-0.3351,-0.3354,-0.3373,-0.3361,-0.3361,-0.3371,-0.3358,-0.3355,-0.3387,-0.3344,-0.3402,-0.339,-0.3357,-0.3351,-0.3345,-0.3304,-0.3295,-0.3405,-0.3405,-0.3405,0,-0.3136,-0.3152,-0.32,-0.3218,-0.3239,-0.3287,-0.3303,-0.333,-0.3364,-0.3363,-0.3364,-0.3374,-0.337,-0.3357,-0.3368,-0.3385,-0.336,-0.3363,-0.3353,-0.3347,-0.3342,-0.3301,-0.3292,-0.3404,-0.3404,-0.3404,-0.3404,0,-0.3134,-0.3154,-0.3164,-0.3191,-0.3227,-0.3249,-0.33,-0.3322,-0.3335,-0.335,-0.3351,-0.3359,-0.3358,-0.3369,-0.3372,-0.3349,-0.334,-0.3351,-0.3325,-0.3335,-0.3293,-0.3283,-0.3403,-0.3403,-0.3403,-0.3403,0,0,-0.3057,-0.3142,-0.3136,-0.3148,-0.3212,-0.3232,-0.3264,-0.3288,-0.329,-0.3321,-0.3309,-0.3321,-0.3331,-0.3332,-0.3342,-0.332,-0.3265,-0.3322,-0.332,-0.3247,-0.3177,-0.308,-0.3061,-0.3265,-0.3264,-0.3263,-0.3159,0,-0.3017,-0.3033,-0.3092,-0.3104,-0.3118,-0.319,-0.3209,-0.3247,-0.3272,-0.3279,-0.3294,-0.3286,-0.3317,-0.3311,-0.3298,-0.3283,-0.324,-0.3292,-0.3208,-0.3206,-0.309,-0.3046,-0.2958,-0.2849,-0.3149,-0.3148,-0.3147,0,-0.2963,-0.2979,-0.2988,-0.3046,-0.3061,-0.3078,-0.3109,-0.3142,-0.3186,-0.321,-0.3226,-0.3243,-0.3235,-0.3251,-0.3207,-0.3238,-0.3198,-0.3178,-0.3174,-0.3081,-0.309,-0.2894,-0.2821,-0.2832,-0.3132,-0.3133,-0.3134,0,-0.2834,-0.2891,-0.2881,-0.2907,-0.2993,-0.3001,-0.3037,-0.3098,-0.3115,-0.3154,-0.3155,-0.3176,-0.3158,-0.3142,-0.3125,-0.3158,-0.3053,-0.3094,-0.2958,-0.2952,-0.2857,-0.2844,-0.2751,-0.3015,-0.3016,-0.3016,-0.3016,0,-0.2739,-0.273,-0.2819,-0.2817,-0.2809,-0.2906,-0.2901,-0.296,-0.3016,-0.3008,-0.3095,-0.3068,-0.3124,-0.3089,-0.3088,-0.2983,-0.3019,-0.2925,-0.2905,-0.2848,-0.2835,-0.2827,-0.2857,-0.3012,-0.3013,-0.3014,-0.3014,0,-0.2597,-0.2656,-0.2656,-0.2732,-0.2749,-0.2742,-0.2818,-0.2817,-0.2896,-0.2887,-0.2889,-0.2958,-0.2922,-0.2954,-0.2911,-0.2895,-0.2777,-0.2776,-0.27,-0.2672,-0.2565,-0.2598,-0.2425,-0.2356,-0.2615,-0.2612,-0.2609,0,-0.2522,-0.2506,-0.257,-0.2563,-0.2591,-0.2607,-0.2616,-0.2728,-0.2733,-0.2794,-0.2762,-0.2755,-0.2723,-0.2655,-0.2638,-0.2592,-0.2609,-0.2457,-0.2497,-0.2508,-0.2533,-0.2543,-0.2499,-0.237,-0.2366,-0.2362,-0.2359,0,-0.2375,-0.2402,-0.2409,-0.2403,-0.2403,-0.2419,-0.2441,-0.2439,-0.2547,-0.255,-0.2534,-0.2518,-0.2481,-0.2416,-0.237,-0.2331,-0.2403,-0.2376,-0.2408,-0.2327,-0.2311,-0.2252,-0.2502,-0.2327,-0.233,-0.2332,-0.2334,-0.2335,-0.2249,-0.2223,-0.2234,-0.2218,-0.2229,-0.2214,-0.2173,-0.2218,-0.2215,-0.222,-0.2287,-0.2271,-0.2271,-0.2207,-0.2158,-0.2086,-0.2129,-0.2066,-0.2102,-0.211,-0.2036,-0.2197,-0.1992,-0.1993,-0.1994,-0.1995,-0.1996,0,-0.2078,-0.2068,-0.2046,-0.2026,-0.198,-0.2045,-0.2035,-0.1981,-0.1931,-0.2008,-0.2001,-0.2069,-0.1993,-0.2019,-0.1966,-0.188,-0.1843,-0.1841,-0.1872,-0.1839,-0.1993,-0.1978,-0.1735,-0.1735,-0.1735,-0.1735,-0.1735,-0.1735,-0.1979,-0.1902,-0.1902,-0.1781,-0.1769,-0.1663,-0.1631,-0.1594,-0.1622,-0.1641,-0.1743,-0.1866,-0.1907,-0.2027,-0.1928,-0.1827,-0.1793,-0.1698,-0.1726,-0.1911,-0.1938,-0.1963,-0.1957,-0.1714,-0.1714,-0.1521,-0.1519,-0.1519]},{"header":{"parameterUnit":"m.s-1","parameterCategory":2,"la1":30.2991,"la2":30.254,"lo1":-89.0895,"lo2":-89.0444,"dy":0.0017,"dx":0.0017,"nx":28,"ny":28,"refTime":"2024-09-24T21:00:00:Z","depth":"0","parameterNumber":3,"parameterNumberName":"V-component_of_CURRENTS"},"data":[0,0,0,0,0,0,0,0,0,0,0,0,0,0,0,0,0,0,0,0,0,0,0,0,0,0,0,0,0,0,0,0,0,0,0,0,0,0,0,0,0,0,0,0,0,0,0,0,0,0,0,0,0,0,0,0,0,0,-0.0632,-0.0632,0,-0.0538,-0.0536,-0.0535,-0.0469,-0.0469,-0.0469,-0.0469,-0.0289,-0.0285,-0.028,0,0,0,0,0,0,0,0,0,0,0,0,0,-0.0703,-0.0702,-0.0632,-0.0632,-0.0631,-0.0538,-0.0536,-0.0535,-0.0469,-0.0469,-0.0469,-0.0469,-0.0291,-0.0285,-0.028,0,0,0,0,0,0,0,0,0,0,0,0,0,-0.0644,-0.0702,-0.0633,-0.0589,-0.0584,-0.0538,-0.0536,-0.0534,-0.047,-0.0469,-0.0469,-0.0468,-0.0292,-0.0286,-0.0279,-0.0244,0,0,-0.0258,-0.0255,0,0,0,0,0,0,0,0,-0.0648,-0.0641,-0.0596,-0.0592,-0.0587,-0.0517,-0.0496,-0.0434,-0.047,-0.051,-0.0469,-0.0468,-0.036,-0.0347,-0.0328,-0.0236,-0.0228,-0.0258,-0.0254,-0.0251,-0.0249,0,0,0,0,0,0,0,-0.0652,-0.0645,-0.0592,-0.0595,-0.0589,-0.0556,-0.0547,-0.0483,-0.0434,-0.0507,-0.0502,-0.0496,-0.0356,-0.0335,-0.0323,-0.0226,-0.0258,-0.0252,-0.0248,-0.0245,-0.0054,-0.0053,0,0,0,0,0,0,-0.0672,-0.0649,-0.0595,-0.059,-0.062,-0.0555,-0.0545,-0.0538,-0.0437,-0.0423,-0.0497,-0.0494,-0.0346,-0.0331,-0.0316,-0.0262,-0.0251,-0.0244,-0.024,-0.0055,-0.0054,-0.0053,0,0,0,0,0,0,-0.0674,-0.0668,-0.0599,-0.0619,-0.0609,-0.0555,-0.0546,-0.0536,-0.0515,-0.0431,-0.0414,-0.0487,-0.0345,-0.0326,-0.0252,-0.0255,-0.0241,-0.0235,-0.0056,-0.0055,-0.0053,-0.0158,0,0,0,0,0,0,-0.0676,-0.0669,-0.0674,-0.0621,-0.0608,-0.0577,-0.0547,-0.0535,-0.0514,-0.0509,-0.0417,-0.04,-0.0344,-0.0263,-0.0245,-0.0245,-0.023,-0.0057,-0.0055,-0.0054,-0.0156,-0.016,-0.0164,0,0,0,0,0,-0.0679,-0.0687,-0.0674,-0.0668,-0.0615,-0.0577,-0.0567,-0.0526,-0.0514,-0.0506,-0.0438,-0.0403,-0.0239,-0.0256,-0.0236,-0.0234,-0.0058,-0.0056,-0.0054,-0.0154,-0.0159,-0.0164,0,0,0,0,0,0,-0.0722,-0.068,-0.0665,-0.066,-0.0625,-0.0567,-0.0561,-0.0533,-0.0475,-0.047,-0.0389,-0.0367,-0.0306,-0.0248,-0.027,-0.017,-0.0143,-0.0136,-0.0225,-0.023,-0.0234,-0.0259,-0.0224,0,0,0,0,0,-0.0735,-0.0727,-0.0682,-0.0678,-0.0666,-0.0616,-0.0598,-0.057,-0.0513,-0.0489,-0.0424,-0.0348,-0.028,-0.024,-0.0172,-0.0116,-0.0072,-0.0099,-0.0103,-0.0107,-0.011,-0.0061,-0.0063,-0.0045,-0.0046,-0.0046,0,0,-0.0757,-0.0728,-0.0728,-0.0687,-0.0659,-0.0643,-0.0604,-0.0582,-0.0561,-0.0477,-0.0427,-0.0363,-0.0268,-0.0209,-0.0176,-0.0161,-0.0084,-0.0104,-0.0109,-0.011,-0.0059,-0.0061,-0.0063,-0.0044,-0.0044,-0.0045,0,0,-0.0785,-0.0767,-0.0767,-0.0744,-0.0705,-0.0669,-0.0668,-0.0612,-0.0581,-0.0525,-0.0461,-0.0399,-0.0293,-0.0231,-0.0184,-0.0166,-0.0113,-0.0142,-0.0181,-0.0134,-0.0136,-0.0137,-0.0079,-0.0074,-0.0141,-0.0141,-0.0141,0,-0.081,-0.08,-0.0763,-0.0755,-0.0743,-0.0687,-0.0686,-0.0645,-0.0569,-0.0545,-0.052,-0.0379,-0.0303,-0.0233,-0.0222,-0.0179,-0.0141,-0.0179,-0.0144,-0.0144,-0.0143,-0.0083,-0.0077,-0.0146,-0.0146,-0.0145,-0.0145,0,-0.0836,-0.0828,-0.0829,-0.0798,-0.0782,-0.0771,-0.0719,-0.0694,-0.0652,-0.0602,-0.0532,-0.0433,-0.0351,-0.0317,-0.026,-0.0215,-0.0185,-0.0165,-0.0146,-0.0153,-0.0087,-0.0079,-0.0153,-0.0151,-0.015,-0.0149,0,0,-0.0876,-0.0852,-0.0849,-0.0846,-0.0805,-0.0791,-0.077,-0.0724,-0.0708,-0.0633,-0.0598,-0.0487,-0.0443,-0.0386,-0.0314,-0.0265,-0.0222,-0.0219,-0.0215,-0.0186,-0.0113,-0.0066,-0.0051,-0.0207,-0.0206,-0.0206,-0.0069,0,-0.09,-0.0904,-0.088,-0.0883,-0.0883,-0.0842,-0.0826,-0.0783,-0.0729,-0.0678,-0.0586,-0.0518,-0.0466,-0.0427,-0.0375,-0.0251,-0.0205,-0.0261,-0.0087,-0.0081,-0.006,-0.0042,-0.0013,0.0114,-0.006,-0.0058,-0.0057,0,-0.0923,-0.0921,-0.0937,-0.0924,-0.0922,-0.0916,-0.089,-0.0864,-0.0788,-0.0747,-0.0683,-0.0605,-0.0506,-0.0468,-0.0298,-0.0339,-0.024,-0.0153,-0.0146,-0.0061,-0.0019,0.0097,0.0136,0.0279,-0.0043,-0.0044,-0.0045,0,-0.0964,-0.0955,-0.097,-0.0968,-0.0949,-0.0952,-0.0935,-0.0886,-0.0865,-0.0787,-0.0754,-0.0647,-0.0564,-0.0453,-0.0273,-0.0287,-0.0084,-0.0078,0.0055,0.006,0.0142,0.0153,0.032,0.0023,0.0023,0.0023,0.0022,0,-0.0993,-0.1001,-0.099,-0.1001,-0.1021,-0.0992,-0.0996,-0.097,-0.0917,-0.0884,-0.0789,-0.0728,-0.0557,-0.0419,-0.0286,-0.0078,-0.0094,0.0056,0.0099,0.011,0.0116,0.0291,0.0346,0.0028,0.0027,0.0026,0.0025,0,-0.1035,-0.1026,-0.1048,-0.1044,-0.1044,-0.1061,-0.1047,-0.1044,-0.0985,-0.0939,-0.0914,-0.0765,-0.058,-0.0404,-0.0182,-0.007,0.0203,0.0178,0.0187,0.0227,0.0465,0.0512,0.0729,0.0807,0.0341,0.0343,0.0344,0,-0.1057,-0.1073,-0.1093,-0.1113,-0.1112,-0.1124,-0.1133,-0.1091,-0.1074,-0.0954,-0.0926,-0.0741,-0.0596,-0.0254,-0.0026,0.0216,0.0315,0.0381,0.0357,0.0493,0.0578,0.0605,0.0656,0.0435,0.0437,0.0439,0.0441,0,-0.11,-0.1109,-0.1131,-0.1174,-0.1194,-0.1212,-0.1206,-0.1201,-0.1131,-0.1064,-0.0928,-0.0802,-0.0464,-0.0164,0.015,0.0293,0.0487,0.0426,0.057,0.067,0.0711,0.0801,0.0335,0.0457,0.0456,0.0454,0.0454,0.0453,-0.1131,-0.1165,-0.1193,-0.1231,-0.126,-0.1273,-0.1267,-0.1235,-0.1186,-0.1056,-0.0938,-0.0715,-0.0293,0.0162,0.0331,0.0691,0.0652,0.0792,0.0842,0.086,0.0926,0.0498,0.066,0.0659,0.0659,0.0658,0.0658,0,-0.1156,-0.1191,-0.1239,-0.128,-0.131,-0.1309,-0.1293,-0.1252,-0.1171,-0.105,-0.0894,-0.0435,-0.0004,0.038,0.0887,0.1089,0.1121,0.119,0.1238,0.1272,0.0909,0.0902,0.1119,0.1119,0.1119,0.1119,0.1118,0.1118,-0.1168,-0.1217,-0.1244,-0.1299,-0.1324,-0.1321,-0.1299,-0.1218,-0.1115,-0.0869,-0.0627,-0.0454,0.0119,0.0961,0.1434,0.1477,0.1633,0.1629,0.1712,0.1461,0.1428,0.1395,0.1403,0.1722,0.1723,0.2054,0.2057,0.206]}],[{"header":{"parameterUnit":"m.s-1","parameterCategory":2,"la1":30.2991,"la2":30.254,"lo1":-89.0895,"lo2":-89.0444,"dy":0.0017,"dx":0.0017,"nx":28,"ny":28,"refTime":"2024-09-24T21:00:00:Z","depth":"2","parameterNumber":2,"parameterNumberName":"U-component_of_CURRENTS"},"data":[0,0,0,0,0,0,0,0,0,0,0,0,0,0,0,0,0,0,0,0,0,0,0,0,0,0,0,0,0,0,0,0,0,0,0,0,0,0,0,0,0,0,0,0,0,0,0,0,0,0,0,0,0,0,0,0,0,0,-0.2979,-0.2979,0,-0.2994,-0.2994,-0.2994,-0.3014,-0.3015,-0.3015,-0.3016,-0.3048,-0.3048,-0.3049,0,0,0,0,0,0,0,0,0,0,0,0,0,-0.2908,-0.2909,-0.2979,-0.2979,-0.2979,-0.2994,-0.2994,-0.2994,-0.3014,-0.3015,-0.3015,-0.3016,-0.3048,-0.3048,-0.3049,0,0,0,0,0,0,0,0,0,0,0,0,0,-0.2931,-0.291,-0.2978,-0.2993,-0.2994,-0.2994,-0.2994,-0.2994,-0.3014,-0.3015,-0.3015,-0.3016,-0.3048,-0.3048,-0.3049,-0.3036,0,0,-0.3051,-0.3051,0,0,0,0,0,0,0,0,-0.2929,-0.2933,-0.299,-0.2992,-0.2994,-0.3005,-0.2981,-0.301,-0.3014,-0.3004,-0.3016,-0.3017,-0.3036,-0.3038,-0.3035,-0.3038,-0.3039,-0.3051,-0.3051,-0.3051,-0.3051,0,0,0,0,0,0,0,-0.2928,-0.2932,-0.2982,-0.2991,-0.2993,-0.2979,-0.2983,-0.2986,-0.3014,-0.3005,-0.3007,-0.3012,-0.3037,-0.3035,-0.3036,-0.304,-0.3051,-0.3051,-0.3051,-0.3052,-0.3147,-0.3149,0,0,0,0,0,0,-0.2933,-0.2931,-0.2982,-0.2983,-0.2965,-0.298,-0.2984,-0.2999,-0.3014,-0.3017,-0.3011,-0.3013,-0.3033,-0.3036,-0.3038,-0.3076,-0.3051,-0.3052,-0.3052,-0.3145,-0.3148,-0.315,0,0,0,0,0,0,-0.2931,-0.2938,-0.2981,-0.2958,-0.2963,-0.2981,-0.2996,-0.2999,-0.3026,-0.3019,-0.3022,-0.304,-0.3034,-0.3037,-0.3077,-0.3076,-0.3052,-0.3052,-0.3142,-0.3146,-0.3149,-0.312,0,0,0,0,0,0,-0.2929,-0.2937,-0.2957,-0.2959,-0.2965,-0.3009,-0.2996,-0.2998,-0.3027,-0.303,-0.3044,-0.3046,-0.3035,-0.3076,-0.3077,-0.3076,-0.3053,-0.3139,-0.3144,-0.3148,-0.3118,-0.3122,-0.3125,0,0,0,0,0,-0.2927,-0.2946,-0.2958,-0.2964,-0.2989,-0.3011,-0.3013,-0.3025,-0.3028,-0.305,-0.3064,-0.3047,-0.3104,-0.3078,-0.3079,-0.3078,-0.3137,-0.3143,-0.3147,-0.3117,-0.3121,-0.3125,0,0,0,0,0,0,-0.2924,-0.295,-0.2963,-0.299,-0.3014,-0.3016,-0.3028,-0.3042,-0.3067,-0.3072,-0.3068,-0.3072,-0.3097,-0.3114,-0.3086,-0.3127,-0.312,-0.3126,-0.3097,-0.3101,-0.3105,-0.3074,-0.3053,0,0,0,0,0,-0.2933,-0.295,-0.2981,-0.2999,-0.3015,-0.3028,-0.304,-0.3054,-0.3071,-0.3083,-0.3096,-0.3113,-0.3113,-0.3131,-0.3136,-0.3164,-0.3141,-0.3173,-0.3176,-0.3178,-0.3161,-0.3138,-0.3135,-0.3166,-0.3166,-0.3166,0,0,-0.2938,-0.2949,-0.2962,-0.2999,-0.301,-0.3026,-0.3038,-0.3064,-0.3071,-0.3082,-0.3106,-0.3118,-0.3124,-0.3141,-0.3157,-0.316,-0.3161,-0.3185,-0.3186,-0.3166,-0.3142,-0.3138,-0.3135,-0.317,-0.3169,-0.3168,0,0,-0.293,-0.2966,-0.2976,-0.3001,-0.3031,-0.3038,-0.3057,-0.3087,-0.3101,-0.3131,-0.3128,-0.3155,-0.3177,-0.3174,-0.3173,-0.3211,-0.317,-0.3225,-0.322,-0.3199,-0.3194,-0.319,-0.3152,-0.3144,-0.3238,-0.3238,-0.3238,0,-0.2926,-0.2945,-0.2983,-0.2997,-0.3007,-0.3047,-0.3058,-0.3075,-0.3116,-0.3121,-0.3145,-0.3163,-0.3182,-0.317,-0.3187,-0.321,-0.3185,-0.319,-0.3196,-0.3191,-0.3187,-0.315,-0.3141,-0.3237,-0.3237,-0.3237,-0.3237,0,-0.2925,-0.2948,-0.2953,-0.2977,-0.3004,-0.3018,-0.3053,-0.309,-0.3113,-0.3118,-0.3135,-0.3162,-0.3176,-0.3191,-0.3195,-0.3183,-0.3169,-0.3185,-0.3166,-0.3181,-0.3142,-0.3134,-0.3236,-0.3236,-0.3237,-0.3237,0,0,-0.2867,-0.2937,-0.2933,-0.2946,-0.2993,-0.3006,-0.3037,-0.3057,-0.3066,-0.3106,-0.3105,-0.3123,-0.3143,-0.3146,-0.3165,-0.3157,-0.3118,-0.3162,-0.3161,-0.309,-0.3047,-0.2953,-0.2935,-0.3124,-0.3122,-0.3121,-0.3028,0,-0.2838,-0.2852,-0.29,-0.291,-0.292,-0.298,-0.2998,-0.3029,-0.3059,-0.308,-0.3095,-0.3098,-0.3122,-0.3135,-0.313,-0.3128,-0.3096,-0.314,-0.3073,-0.3071,-0.2956,-0.2922,-0.2714,-0.2605,-0.302,-0.3019,-0.3018,0,-0.2796,-0.2813,-0.282,-0.2871,-0.2882,-0.2896,-0.2933,-0.2962,-0.3002,-0.3031,-0.3047,-0.3063,-0.3066,-0.3088,-0.3055,-0.3079,-0.3052,-0.304,-0.3037,-0.2946,-0.2961,-0.2664,-0.2575,-0.3004,-0.3005,-0.3006,-0.3007,0,-0.2697,-0.2745,-0.2741,-0.2759,-0.283,-0.2844,-0.2878,-0.293,-0.2947,-0.2991,-0.3001,-0.3016,-0.3015,-0.3001,-0.2993,-0.3021,-0.2934,-0.2977,-0.285,-0.2844,-0.265,-0.2628,-0.2911,-0.2911,-0.2911,-0.2911,-0.2911,0,-0.2621,-0.2616,-0.2695,-0.2692,-0.2694,-0.2773,-0.2777,-0.2833,-0.2887,-0.2876,-0.2956,-0.2935,-0.2989,-0.2959,-0.296,-0.2865,-0.2904,-0.2815,-0.2802,-0.2638,-0.2617,-0.2961,-0.2968,-0.2908,-0.2908,-0.2909,-0.291,0,-0.2501,-0.2555,-0.2557,-0.2627,-0.2644,-0.2642,-0.2711,-0.2713,-0.2791,-0.2786,-0.2792,-0.2853,-0.282,-0.2844,-0.2815,-0.2793,-0.274,-0.2687,-0.2483,-0.2447,-0.2674,-0.2681,-0.2543,-0.2539,-0.2535,-0.2532,-0.253,0,-0.2434,-0.2423,-0.2484,-0.2479,-0.2503,-0.2525,-0.2533,-0.2639,-0.2644,-0.2706,-0.2676,-0.2676,-0.2637,-0.2576,-0.2532,-0.2479,-0.2595,-0.2257,-0.2275,-0.2628,-0.2631,-0.2644,-0.2657,-0.2011,-0.2004,-0.1999,-0.1994,0,-0.2301,-0.2328,-0.2335,-0.2333,-0.2335,-0.2349,-0.2372,-0.2374,-0.2474,-0.2479,-0.2462,-0.2444,-0.2388,-0.2243,-0.2189,-0.214,-0.2265,-0.2144,-0.2531,-0.2149,-0.2121,-0.2127,-0.2156,-0.1946,-0.1951,-0.1954,-0.1957,-0.1959,-0.2183,-0.2159,-0.2171,-0.2157,-0.217,-0.2155,-0.2115,-0.2151,-0.2145,-0.2123,-0.2196,-0.2112,-0.2094,-0.191,-0.1814,-0.176,-0.1932,-0.1871,-0.189,-0.1913,-0.1881,-0.185,-0.1616,-0.1619,-0.1621,-0.1623,-0.1625,0,-0.2017,-0.2011,-0.1991,-0.1973,-0.1926,-0.1994,-0.1983,-0.1912,-0.1849,-0.1863,-0.1829,-0.1633,-0.1529,-0.1541,-0.1376,-0.1352,-0.1357,-0.1306,-0.1317,-0.1363,-0.1406,-0.135,-0.0943,-0.0941,-0.094,-0.0938,0,0,-0.1922,-0.1848,-0.1848,-0.173,-0.1721,-0.1611,-0.1578,-0.1509,-0.1483,-0.1384,-0.1347,-0.1432,-0.148,-0.121,-0.1142,-0.102,-0.1183,-0.0963,-0.1505,-0.1563,-0.1603,-0.1719,-0.1684,0,0,0,0,0]},{"header":{"parameterUnit":"m.s-1","parameterCategory":2,"la1":30.2991,"la2":30.254,"lo1":-89.0895,"lo2":-89.0444,"dy":0.0017,"dx":0.0017,"nx":28,"ny":28,"refTime":"2024-09-24T21:00:00:Z","depth":"2","parameterNumber":3,"parameterNumberName":"V-component_of_CURRENTS"},"data":[0,0,0,0,0,0,0,0,0,0,0,0,0,0,0,0,0,0,0,0,0,0,0,0,0,0,0,0,0,0,0,0,0,0,0,0,0,0,0,0,0,0,0,0,0,0,0,0,0,0,0,0,0,0,0,0,0,0,-0.0467,-0.0466,0,-0.0357,-0.0356,-0.0354,-0.0307,-0.0307,-0.0308,-0.0308,-0.017,-0.0166,-0.0162,0,0,0,0,0,0,0,0,0,0,0,0,0,-0.0547,-0.0546,-0.0467,-0.0466,-0.0465,-0.0357,-0.0355,-0.0354,-0.0307,-0.0307,-0.0308,-0.0308,-0.0171,-0.0166,-0.0161,0,0,0,0,0,0,0,0,0,0,0,0,0,-0.048,-0.0546,-0.0467,-0.043,-0.0426,-0.0358,-0.0355,-0.0353,-0.0307,-0.0307,-0.0308,-0.0308,-0.0173,-0.0167,-0.0161,-0.0112,0,0,-0.0142,-0.014,0,0,0,0,0,0,0,0,-0.0484,-0.0477,-0.0436,-0.0432,-0.0427,-0.0348,-0.0333,-0.0272,-0.0306,-0.0349,-0.0308,-0.0309,-0.0228,-0.0217,-0.0193,-0.0105,-0.0099,-0.0142,-0.0138,-0.0135,-0.0134,0,0,0,0,0,0,0,-0.0489,-0.0481,-0.0421,-0.0435,-0.043,-0.0388,-0.038,-0.0321,-0.0284,-0.0346,-0.0343,-0.0334,-0.0225,-0.0199,-0.0189,-0.0097,-0.0142,-0.0137,-0.0133,-0.013,0.0036,0.0037,0,0,0,0,0,0,-0.0511,-0.0486,-0.0425,-0.0418,-0.046,-0.0387,-0.0377,-0.0371,-0.0286,-0.0274,-0.0333,-0.0332,-0.0209,-0.0196,-0.0184,-0.0148,-0.0136,-0.013,-0.0126,0.0035,0.0036,0.0037,0,0,0,0,0,0,-0.0513,-0.0507,-0.0429,-0.0451,-0.0439,-0.0386,-0.0378,-0.0369,-0.0356,-0.0277,-0.0264,-0.0333,-0.0209,-0.0192,-0.0139,-0.0141,-0.0127,-0.0122,0.0034,0.0036,0.0037,-0.0059,0,0,0,0,0,0,-0.0516,-0.0508,-0.0516,-0.0453,-0.0438,-0.0407,-0.0378,-0.0366,-0.035,-0.0347,-0.0272,-0.0259,-0.0208,-0.0148,-0.0133,-0.0133,-0.0117,0.0033,0.0035,0.0036,-0.0057,-0.0061,-0.0065,0,0,0,0,0,-0.0519,-0.0528,-0.0518,-0.051,-0.045,-0.0408,-0.0397,-0.0359,-0.035,-0.0348,-0.0292,-0.0262,-0.0128,-0.0143,-0.0125,-0.0123,0.0033,0.0035,0.0036,-0.0055,-0.006,-0.0065,0,0,0,0,0,0,-0.0569,-0.0523,-0.051,-0.0505,-0.047,-0.0401,-0.0396,-0.037,-0.0323,-0.0322,-0.0251,-0.0234,-0.0188,-0.0136,-0.0155,-0.0067,-0.0042,-0.0037,-0.0117,-0.0121,-0.0125,-0.0142,-0.0112,0,0,0,0,0,-0.0584,-0.0578,-0.0528,-0.0526,-0.0513,-0.0458,-0.0439,-0.0412,-0.0361,-0.0342,-0.0288,-0.0223,-0.0162,-0.013,-0.0071,-0.0022,0.0022,-0.0006,-0.0011,-0.0015,-0.0013,0.0036,0.0035,0.0043,0.0043,0.0043,0,0,-0.0604,-0.0577,-0.0575,-0.0536,-0.0504,-0.0485,-0.0448,-0.0425,-0.0405,-0.0332,-0.0294,-0.0239,-0.0152,-0.0102,-0.0076,-0.0062,0.0009,-0.0012,-0.0017,-0.0013,0.0038,0.0037,0.0036,0.0044,0.0044,0.0044,0,0,-0.0632,-0.0617,-0.062,-0.0594,-0.0555,-0.0516,-0.0518,-0.046,-0.0435,-0.0388,-0.033,-0.0279,-0.0187,-0.0128,-0.0084,-0.007,-0.0018,-0.005,-0.0081,-0.0035,-0.0036,-0.0036,0.0019,0.0025,-0.0049,-0.005,-0.005,0,-0.0658,-0.0651,-0.0615,-0.0608,-0.0592,-0.0538,-0.0535,-0.0494,-0.0426,-0.0402,-0.039,-0.0257,-0.0197,-0.0123,-0.0118,-0.0082,-0.0044,-0.0078,-0.0044,-0.0043,-0.0042,0.0015,0.0022,-0.0054,-0.0053,-0.0053,-0.0053,0,-0.0684,-0.0678,-0.0678,-0.065,-0.0631,-0.0618,-0.0564,-0.0544,-0.0509,-0.0457,-0.0393,-0.0309,-0.0233,-0.0204,-0.0155,-0.0108,-0.0081,-0.0064,-0.0044,-0.0049,0.0013,0.0021,-0.006,-0.0059,-0.0057,-0.0056,0,0,-0.0731,-0.0702,-0.0701,-0.0698,-0.0653,-0.0638,-0.0614,-0.0566,-0.0549,-0.0482,-0.0447,-0.0346,-0.0307,-0.0253,-0.019,-0.0143,-0.0104,-0.0106,-0.0101,-0.0072,0.0005,0.004,0.0054,-0.009,-0.0089,-0.0088,0.0043,0,-0.0758,-0.0763,-0.0735,-0.0735,-0.0733,-0.0687,-0.0668,-0.0621,-0.057,-0.0522,-0.0432,-0.037,-0.0321,-0.0292,-0.0239,-0.0132,-0.0084,-0.014,0.0026,0.0031,0.0045,0.0065,0.0043,0.016,0.0052,0.0054,0.0055,0,-0.0788,-0.0786,-0.0799,-0.0779,-0.0775,-0.0767,-0.0736,-0.0708,-0.0627,-0.0589,-0.0519,-0.0444,-0.0349,-0.0321,-0.0156,-0.0196,-0.0107,-0.0028,-0.0021,0.0052,0.0083,0.0152,0.0181,0.0071,0.007,0.0069,0.0067,0,-0.0841,-0.0827,-0.0842,-0.0835,-0.0807,-0.0809,-0.0789,-0.0731,-0.0708,-0.0629,-0.0599,-0.0483,-0.0413,-0.03,-0.0138,-0.0149,0.0043,0.0048,0.0168,0.0172,0.0209,0.0215,0.0151,0.0151,0.0151,0.0151,0.015,0,-0.0878,-0.0886,-0.087,-0.0879,-0.0898,-0.0859,-0.0862,-0.0831,-0.0774,-0.0736,-0.0636,-0.0577,-0.0407,-0.0274,-0.0147,0.0048,0.0037,0.0173,0.0209,0.0178,0.0179,0.0145,0.0143,0.0156,0.0154,0.0153,0.0153,0,-0.0929,-0.0917,-0.0937,-0.0927,-0.0926,-0.0942,-0.0921,-0.0915,-0.0854,-0.0807,-0.0784,-0.063,-0.0452,-0.0275,-0.0062,0.005,0.0218,0.0285,0.0243,0.0272,0.0318,0.0309,0.0431,0.0434,0.0436,0.0437,0.0439,0,-0.0955,-0.0972,-0.0987,-0.1006,-0.1003,-0.1013,-0.1019,-0.0971,-0.0951,-0.083,-0.0803,-0.0625,-0.0481,-0.0152,0.0068,0.0303,0.029,0.0417,0.0391,0.0324,0.0348,0.0336,0.0325,0.0409,0.041,0.0411,0.0412,0,-0.1002,-0.1011,-0.103,-0.1072,-0.1091,-0.1104,-0.1096,-0.1091,-0.1015,-0.0949,-0.0817,-0.0692,-0.0371,-0.0101,0.0201,0.0331,0.0373,0.0443,0.0398,0.0333,0.0312,0.0332,0.032,0.042,0.0419,0.0418,0.0418,0.0418,-0.1035,-0.1069,-0.1094,-0.1132,-0.1158,-0.1169,-0.1164,-0.1122,-0.1071,-0.0928,-0.0823,-0.0599,-0.0352,0.0093,0.0291,0.0477,0.0475,0.0522,0.0516,0.051,0.0475,0.0458,0.0587,0.0587,0.0588,0.0588,0.0588,0,-0.1059,-0.1097,-0.1143,-0.1181,-0.1206,-0.1209,-0.1191,-0.1133,-0.1044,-0.0911,-0.075,-0.0452,-0.0155,0.0089,0.0394,0.0572,0.0543,0.059,0.0517,0.051,0.0503,0.0464,0.0576,0.0576,0.0576,0.0576,0,0,-0.1071,-0.1118,-0.1143,-0.1195,-0.1224,-0.1212,-0.1192,-0.1081,-0.0961,-0.0788,-0.0631,-0.0421,-0.0136,0.0076,0.0293,0.0443,0.0425,0.0452,0.0448,0.0329,0.032,0.0456,0.0388,0,0,0,0,0]}],[{"header":{"parameterUnit":"m.s-1","parameterCategory":2,"la1":30.2991,"la2":30.254,"lo1":-89.0895,"lo2":-89.0444,"dy":0.0017,"dx":0.0017,"nx":28,"ny":28,"refTime":"2024-09-24T21:00:00:Z","depth":"4","parameterNumber":2,"parameterNumberName":"U-component_of_CURRENTS"},"data":[0,0,0,0,0,0,0,0,0,0,0,0,0,0,0,0,0,0,0,0,0,0,0,0,0,0,0,0,0,0,0,0,0,0,0,0,0,0,0,0,0,0,0,0,0,0,0,0,0,0,0,0,0,0,0,0,0,0,-0.169,-0.169,0,-0.1694,-0.1694,-0.1694,-0.1701,-0.1701,-0.1702,-0.1702,-0.174,-0.1741,-0.1742,0,0,0,0,0,0,0,0,0,0,0,0,0,-0.1648,-0.1649,-0.169,-0.169,-0.169,-0.1694,-0.1694,-0.1694,-0.1701,-0.1701,-0.1702,-0.1702,-0.174,-0.1741,-0.1742,0,0,0,0,0,0,0,0,0,0,0,0,0,-0.166,-0.1649,-0.169,-0.1695,-0.1695,-0.1694,-0.1694,-0.1694,-0.1701,-0.1701,-0.1702,-0.1702,-0.174,-0.1741,-0.1742,-0.1746,0,0,-0.1746,-0.1747,0,0,0,0,0,0,0,0,-0.166,-0.1662,-0.1694,-0.1694,-0.1695,-0.1698,-0.1693,-0.1713,-0.1701,-0.1699,-0.1702,-0.1702,-0.1729,-0.1731,-0.1731,-0.1748,-0.1749,-0.1746,-0.1747,-0.1748,-0.1748,0,0,0,0,0,0,0,-0.1659,-0.1661,-0.1692,-0.1694,-0.1694,-0.1682,-0.1685,-0.1697,-0.1713,-0.1699,-0.1699,-0.17,-0.173,-0.1729,-0.1732,-0.175,-0.1746,-0.1748,-0.1748,-0.1749,-0.1781,-0.1781,0,0,0,0,0,0,-0.1661,-0.1661,-0.1692,-0.1692,-0.1678,-0.1683,-0.1686,-0.1696,-0.1712,-0.1715,-0.17,-0.17,-0.1727,-0.173,-0.1733,-0.1789,-0.1748,-0.1749,-0.175,-0.1781,-0.1781,-0.1781,0,0,0,0,0,0,-0.166,-0.1664,-0.1691,-0.1676,-0.1679,-0.1684,-0.1696,-0.1696,-0.1734,-0.1713,-0.1716,-0.1741,-0.1727,-0.1732,-0.1778,-0.1789,-0.175,-0.1751,-0.1781,-0.1781,-0.1781,-0.1869,0,0,0,0,0,0,-0.1659,-0.1664,-0.168,-0.1676,-0.168,-0.1708,-0.1695,-0.1696,-0.1731,-0.1733,-0.1748,-0.1749,-0.1728,-0.1776,-0.1779,-0.179,-0.1752,-0.1781,-0.1781,-0.1781,-0.1866,-0.1872,-0.1877,0,0,0,0,0,-0.1658,-0.167,-0.1681,-0.1685,-0.1699,-0.1709,-0.1711,-0.1713,-0.1734,-0.175,-0.177,-0.1751,-0.1777,-0.1779,-0.1782,-0.1793,-0.1781,-0.1781,-0.1781,-0.1863,-0.1871,-0.1877,0,0,0,0,0,0,-0.1653,-0.1672,-0.1684,-0.1701,-0.1716,-0.1711,-0.1723,-0.1742,-0.1772,-0.1783,-0.1778,-0.1781,-0.1818,-0.1795,-0.1798,-0.1796,-0.1765,-0.1766,-0.1826,-0.1833,-0.1839,-0.1826,-0.1753,0,0,0,0,0,-0.1662,-0.1687,-0.1696,-0.1716,-0.1724,-0.1739,-0.175,-0.1758,-0.1777,-0.1792,-0.1803,-0.1805,-0.1813,-0.1821,-0.1818,-0.1839,-0.1826,-0.1836,-0.1841,-0.1847,-0.1835,-0.1845,-0.1852,-0.1782,-0.1782,-0.1782,0,0,-0.1668,-0.1682,-0.1697,-0.1719,-0.173,-0.1748,-0.1747,-0.1772,-0.1799,-0.1792,-0.1839,-0.1841,-0.1826,-0.1841,-0.1851,-0.183,-0.1863,-0.1847,-0.1852,-0.1837,-0.1846,-0.1854,-0.186,-0.1782,-0.1782,-0.1782,0,0,-0.1683,-0.1705,-0.1728,-0.1741,-0.1765,-0.1774,-0.1797,-0.1815,-0.1836,-0.1883,-0.1875,-0.189,-0.1911,-0.1886,-0.1882,-0.1918,-0.1901,-0.1913,-0.193,-0.1941,-0.1948,-0.1953,-0.1967,-0.1973,-0.1906,-0.1907,-0.1907,0,-0.17,-0.172,-0.1736,-0.1754,-0.1769,-0.1797,-0.1822,-0.1845,-0.188,-0.1898,-0.1908,-0.193,-0.1923,-0.1931,-0.1931,-0.1931,-0.194,-0.1915,-0.1952,-0.1956,-0.196,-0.1973,-0.1978,-0.1911,-0.191,-0.191,-0.1909,0,-0.1712,-0.1744,-0.1756,-0.1796,-0.1815,-0.1841,-0.1867,-0.1901,-0.194,-0.1956,-0.1993,-0.1987,-0.1991,-0.1986,-0.1975,-0.1987,-0.1987,-0.1972,-0.1943,-0.1973,-0.1984,-0.1988,-0.1917,-0.1915,-0.1914,-0.1913,0,0,-0.1726,-0.1765,-0.1775,-0.1804,-0.184,-0.1864,-0.1905,-0.1945,-0.1989,-0.2013,-0.206,-0.2052,-0.2051,-0.2041,-0.2025,-0.2021,-0.2064,-0.201,-0.2009,-0.2039,-0.2104,-0.1939,-0.1927,-0.2071,-0.2072,-0.2072,-0.2109,0,-0.1744,-0.1792,-0.1801,-0.1861,-0.1888,-0.1915,-0.1955,-0.1994,-0.2033,-0.2084,-0.2078,-0.2116,-0.2073,-0.209,-0.208,-0.2074,-0.2075,-0.2055,-0.2055,-0.2055,-0.1916,-0.1926,-0.2074,-0.2112,-0.2113,-0.2113,-0.2114,0,-0.1747,-0.1785,-0.1838,-0.1904,-0.1919,-0.1961,-0.2031,-0.2069,-0.2122,-0.215,-0.2168,-0.218,-0.218,-0.2151,-0.214,-0.2138,-0.2122,-0.2108,-0.211,-0.1919,-0.1895,-0.2066,-0.2121,-0.212,-0.212,-0.2119,-0.2119,0,-0.1739,-0.1812,-0.1863,-0.1882,-0.1953,-0.1992,-0.204,-0.2093,-0.2123,-0.2199,-0.2227,-0.2242,-0.2254,-0.224,-0.2186,-0.2188,-0.2175,-0.2177,-0.2011,-0.2001,-0.2106,-0.2099,-0.2168,-0.2168,-0.2168,-0.2168,-0.2168,0,-0.1727,-0.1774,-0.1877,-0.1898,-0.1964,-0.202,-0.2084,-0.2126,-0.2192,-0.2201,-0.2263,-0.225,-0.2278,-0.2261,-0.2223,-0.2107,-0.2202,-0.2003,-0.1988,-0.2143,-0.214,-0.211,-0.2103,-0.2169,-0.2169,-0.2169,-0.2168,0,-0.1668,-0.1743,-0.1803,-0.1911,-0.195,-0.1995,-0.2086,-0.2112,-0.2202,-0.2218,-0.2241,-0.228,-0.2242,-0.2242,-0.2218,-0.2126,-0.2059,-0.1996,-0.2165,-0.2162,-0.1882,-0.1879,-0.1837,-0.1831,-0.1826,-0.1822,-0.1819,0,-0.1625,-0.1656,-0.1787,-0.1816,-0.1862,-0.1947,-0.1976,-0.2087,-0.2095,-0.2178,-0.2153,-0.2184,-0.2174,-0.2018,-0.2038,-0.1976,-0.1933,-0.1912,-0.188,-0.1852,-0.1844,-0.1849,-0.1852,-0.1811,-0.181,-0.1808,-0.1807,0,-0.1527,-0.1595,-0.164,-0.1708,-0.1761,-0.1805,-0.1866,-0.1871,-0.1961,-0.2072,-0.1998,-0.1969,-0.1927,-0.1889,-0.1852,-0.1798,-0.1936,-0.186,-0.187,-0.1841,-0.1821,-0.1818,-0.1827,-0.179,-0.1792,-0.1794,-0.1795,0,-0.1441,-0.1448,-0.1522,-0.1561,-0.1628,-0.1629,-0.169,-0.169,-0.1728,-0.183,-0.1789,-0.1818,-0.1883,-0.1793,-0.1746,-0.1693,-0.1666,-0.1612,-0.1635,-0.1654,-0.157,-0.1516,-0.1366,0,0,0,0,0,-0.1343,-0.1335,-0.1362,-0.1399,-0.1461,-0.1498,-0.1583,-0.1644,-0.1751,-0.1642,-0.1716,-0.1657,-0.1594,-0.1616,-0.1518,-0.1665,-0.168,-0.1546,-0.1634,-0.1696,-0.1715,-0.1628,0,0,0,0,0,0,-0.1273,-0.1298,-0.1309,-0.1258,-0.1251,-0.1294,-0.1344,-0.1418,-0.1375,-0.1489,-0.146,-0.1545,-0.151,-0.1613,-0.1478,-0.1485,-0.1502,-0.158,-0.1575,-0.1685,-0.1702,-0.1718,-0.1636,0,0,0,0,0]},{"header":{"parameterUnit":"m.s-1","parameterCategory":2,"la1":30.2991,"la2":30.254,"lo1":-89.0895,"lo2":-89.0444,"dy":0.0017,"dx":0.0017,"nx":28,"ny":28,"refTime":"2024-09-24T21:00:00:Z","depth":"4","parameterNumber":3,"parameterNumberName":"V-component_of_CURRENTS"},"data":[0,0,0,0,0,0,0,0,0,0,0,0,0,0,0,0,0,0,0,0,0,0,0,0,0,0,0,0,0,0,0,0,0,0,0,0,0,0,0,0,0,0,0,0,0,0,0,0,0,0,0,0,0,0,0,0,0,0,-0.0209,-0.0208,0,-0.0155,-0.0154,-0.0154,-0.0114,-0.0113,-0.0113,-0.0113,-0.004,-0.0038,-0.0037,0,0,0,0,0,0,0,0,0,0,0,0,0,-0.0244,-0.0244,-0.0209,-0.0208,-0.0207,-0.0155,-0.0154,-0.0154,-0.0114,-0.0113,-0.0113,-0.0112,-0.004,-0.0038,-0.0036,0,0,0,0,0,0,0,0,0,0,0,0,0,-0.0214,-0.0244,-0.0209,-0.0181,-0.0178,-0.0155,-0.0154,-0.0153,-0.0114,-0.0113,-0.0113,-0.0112,-0.0041,-0.0039,-0.0036,-0.0032,0,0,-0.0029,-0.0028,0,0,0,0,0,0,0,0,-0.0216,-0.0212,-0.0186,-0.0183,-0.018,-0.014,-0.014,-0.0112,-0.0114,-0.0138,-0.0113,-0.0112,-0.0072,-0.0067,-0.0058,-0.0028,-0.0025,-0.0029,-0.0027,-0.0026,-0.0025,0,0,0,0,0,0,0,-0.0218,-0.0214,-0.0187,-0.0185,-0.0181,-0.016,-0.0156,-0.0134,-0.0108,-0.0136,-0.0133,-0.0127,-0.007,-0.0061,-0.0056,-0.0024,-0.0029,-0.0026,-0.0025,-0.0024,0.001,0.0009,0,0,0,0,0,0,-0.0227,-0.0217,-0.0189,-0.0186,-0.0197,-0.016,-0.0155,-0.0154,-0.0109,-0.0102,-0.0128,-0.0126,-0.0065,-0.0059,-0.0054,-0.0037,-0.0026,-0.0024,-0.0022,0.001,0.0009,0.0009,0,0,0,0,0,0,-0.0228,-0.0225,-0.0191,-0.02,-0.0194,-0.0161,-0.0159,-0.0153,-0.0146,-0.0103,-0.0095,-0.0127,-0.0064,-0.0057,-0.0039,-0.0034,-0.0023,-0.002,0.0011,0.001,0.0009,-0.001,0,0,0,0,0,0,-0.0229,-0.0226,-0.0229,-0.0201,-0.0194,-0.0183,-0.0159,-0.0152,-0.0143,-0.014,-0.01,-0.0093,-0.0063,-0.0043,-0.0036,-0.0031,-0.0019,0.0011,0.001,0.0009,-0.0009,-0.0012,-0.0014,0,0,0,0,0,-0.0231,-0.0239,-0.023,-0.0226,-0.0199,-0.0184,-0.0179,-0.0153,-0.0144,-0.0144,-0.0118,-0.0094,-0.0045,-0.0041,-0.0034,-0.0027,0.0012,0.0011,0.0009,-0.0008,-0.0011,-0.0014,0,0,0,0,0,0,-0.0254,-0.0235,-0.0224,-0.0225,-0.0208,-0.0177,-0.0175,-0.016,-0.014,-0.0137,-0.0099,-0.009,-0.0072,-0.0054,-0.0051,-0.0024,-0.0014,-0.0013,-0.0029,-0.0032,-0.0035,-0.0021,-0.0017,0,0,0,0,0,-0.0262,-0.0266,-0.024,-0.0242,-0.0235,-0.0208,-0.0199,-0.0183,-0.0161,-0.0151,-0.0124,-0.0097,-0.0072,-0.0056,-0.0035,-0.0019,0.0018,-0.0013,-0.0016,-0.0018,-0.0004,0.006,0.0065,0.0005,0.0005,0.0005,0,0,-0.027,-0.0262,-0.0262,-0.0248,-0.0232,-0.0226,-0.0202,-0.0194,-0.0185,-0.0147,-0.0131,-0.0106,-0.0072,-0.0052,-0.0042,-0.0034,0.0013,-0.0019,-0.0021,-0.0006,0.0059,0.0066,0.0071,0.0004,0.0004,0.0004,0,0,-0.0291,-0.0283,-0.0291,-0.028,-0.0263,-0.0246,-0.0247,-0.022,-0.0204,-0.0191,-0.0157,-0.0125,-0.0103,-0.006,-0.004,-0.0045,-0.0005,-0.0053,-0.0047,0.0014,0.0021,0.0027,0.0063,0.0073,-0.005,-0.005,-0.005,0,-0.0306,-0.0307,-0.0291,-0.0294,-0.0286,-0.0259,-0.0259,-0.0241,-0.0211,-0.019,-0.0192,-0.0123,-0.0098,-0.0044,-0.0049,-0.0046,-0.0018,-0.0036,0.0014,0.0021,0.0028,0.0064,0.0075,-0.0051,-0.0051,-0.0051,-0.0051,0,-0.0326,-0.0327,-0.0332,-0.0326,-0.0315,-0.0315,-0.0285,-0.0271,-0.0255,-0.0224,-0.0177,-0.0134,-0.0088,-0.008,-0.0067,-0.0009,-0.0008,0.0003,0.0027,0.0033,0.0069,0.0081,-0.0053,-0.0052,-0.0052,-0.0052,0,0,-0.0367,-0.0351,-0.0354,-0.0355,-0.0333,-0.0331,-0.031,-0.0277,-0.026,-0.0219,-0.0183,-0.0128,-0.0094,-0.0069,-0.0037,0.0018,0.0077,0.0023,0.0027,0.0068,0.0195,0.0157,0.0166,0.0096,0.0098,0.01,0.0194,0,-0.039,-0.041,-0.0385,-0.0395,-0.04,-0.0361,-0.0345,-0.0309,-0.0275,-0.0237,-0.0161,-0.0128,-0.0093,-0.0079,-0.001,0.0047,0.0109,0.0049,0.0175,0.0179,0.0153,0.018,0.0107,0.0203,0.0206,0.0208,0.021,0,-0.042,-0.0429,-0.0447,-0.0432,-0.0428,-0.043,-0.0397,-0.0377,-0.0303,-0.0272,-0.0196,-0.0148,-0.0059,-0.0043,0.0107,0.0063,0.0132,0.0185,0.019,0.0176,0.0164,0.0201,0.0232,0.023,0.0228,0.0227,0.0225,0,-0.0471,-0.0471,-0.0492,-0.0489,-0.0467,-0.0465,-0.0453,-0.0394,-0.0375,-0.0299,-0.0277,-0.0153,-0.011,0.0011,0.0119,0.0112,0.0275,0.0281,0.0325,0.0322,0.0337,0.033,0.0407,0.0407,0.0406,0.0406,0.0406,0,-0.0506,-0.0522,-0.0526,-0.0539,-0.0559,-0.0525,-0.0526,-0.0488,-0.0434,-0.0402,-0.0306,-0.0252,-0.0096,0.0013,0.0122,0.0253,0.0286,0.034,0.0355,0.0321,0.0311,0.0345,0.0336,0.041,0.0409,0.0408,0.0408,0,-0.0545,-0.055,-0.0577,-0.0579,-0.0586,-0.0604,-0.0593,-0.0583,-0.0531,-0.0487,-0.0469,-0.0329,-0.0187,-0.0032,0.0156,0.0238,0.0372,0.0414,0.0353,0.036,0.0378,0.0367,0.0478,0.0478,0.0477,0.0477,0.0477,0,-0.0559,-0.0583,-0.0621,-0.0645,-0.0651,-0.0674,-0.0679,-0.064,-0.0619,-0.0524,-0.0497,-0.0366,-0.0258,-0.0013,0.0142,0.0352,0.0381,0.0441,0.0434,0.0387,0.0391,0.038,0.037,0.0476,0.0476,0.0476,0.0476,0,-0.058,-0.0606,-0.0628,-0.0686,-0.0717,-0.0735,-0.074,-0.0733,-0.0667,-0.0635,-0.0505,-0.0368,-0.0208,-0.0014,0.0139,0.0293,0.0395,0.0439,0.0441,0.0435,0.0387,0.0388,0.0379,0.0475,0.0475,0.0475,0.0476,0,-0.0594,-0.0623,-0.0664,-0.0706,-0.0753,-0.0767,-0.077,-0.0725,-0.0697,-0.0586,-0.0546,-0.0362,-0.0253,-0.0044,0.0103,0.0239,0.0278,0.0318,0.0327,0.033,0.0252,0.0167,0.0214,0,0,0,0,0,-0.0594,-0.0627,-0.0673,-0.0718,-0.0764,-0.0782,-0.0785,-0.0772,-0.0723,-0.0637,-0.0585,-0.0429,-0.0195,-0.0087,0.0045,0.0087,0.0285,0.0243,0.0333,0.047,0.0471,0.0401,0,0,0,0,0,0,-0.0597,-0.0646,-0.0669,-0.0713,-0.0744,-0.078,-0.0782,-0.075,-0.0687,-0.0624,-0.0495,-0.0418,-0.0189,-0.0273,0.004,0.0082,0.0152,0.0356,0.0358,0.0469,0.047,0.0471,0.04,0,0,0,0,0]}]]